Temperature
20 17 16 17 18 19 20 20 20 21 22 23 22 23 24 25 25 24 24 23 23 23 24 24 24 24 24 23 22 22 22 21 21 20 20 19 19 19 18 18 18 18 17 17
17 17 18 19 20 20 20 20 20 21 22 23 22 22 23 23 23 23 23 22 22 22 23 24 24 23 23 23 22 22 22 21 21 20 20 20 19 19 18 18 17 17 17 17
16 17 19 20 20 20 20 20 20 21 22 22 22 22 22 22 22 21 21 20 20 21 21 22 23 23 23 23 22 22 21 21 21 20 20 19 18 18 17 17 17 16 16 16
17 18 20 20 20 20 19 21 22 22 21 19 21 20 21 21 20 19 17 18 18 19 20 20 21 22 22 22 22 21 21 21 20 19 19 19 18 17 17 16 16 15 15 15
18 19 19 19 20 21 20 22 22 22 21 20 20 20 19 20 19 17 16 16 16 17 17 18 19 20 21 21 21 21 20 20 19 19 19 18 17 17 16 15 15 15 14 14
18 20 20 20 22 22 22 22 21 19 17 19 20 21 19 18 18 17 15 15 15 15 16 16 17 18 19 20 20 20 19 19 18 18 18 17 17 16 15 14 14 14 14 13
19 20 21 21 21 22 21 18 18 18 17 18 20 20 18 17 17 16 15 14 14 14 15 15 16 17 17 18 18 18 18 17 17 17 16 16 16 15 15 14 14 13 13 12
18 18 20 22 21 20 20 18 17 18 18 18 20 19 17 16 15 14 14 13 13 13 14 14 15 15 16 16 17 17 16 16 16 16 15 15 15 14 14 13 13 12 12 11
18 18 21 22 22 21 21 19 18 17 19 19 18 17 16 16 15 14 13 13 13 13 13 13 14 14 14 15 15 15 15 15 15 15 14 14 13 13 13 12 12 11 11 10
19 19 20 21 22 21 21 20 17 17 18 18 19 18 17 16 15 14 13 12 12 12 12 12 13 13 13 13 14 14 14 14 14 13 13 13 12 12 11 11 10 10 9 9
18 17 18 19 19 19 20 19 18 16 16 17 18 17 16 15 14 13 12 12 12 12 12 12 12 12 12 12 12 13 13 12 12 12 12 11 11 10 10 9 9 9 8 8
16 16 16 18 18 19 18 18 16 16 17 17 16 15 15 14 13 12 12 11 11 11 11 11 11 11 11 11 11 11 11 11 11 11 10 10 10 9 9 8 8 8 7 7
17 15 15 16 16 17 17 17 16 15 15 15 15 15 14 13 12 12 11 11 11 11 11 11 11 11 11 10 10 10 10 10 10 10 9 9 8 8 8 7 7 7 7 6
16 14 15 15 15 16 16 17 16 15 14 14 15 15 13 13 12 11 10 10 10 10 10 10 10 10 10 10 9 9 9 9 9 9 8 8 8 7 7 7 6 6 6 6
14 15 16 16 17 16 16 16 16 15 15 14 14 14 13 12 11 11 10 10 10 10 10 9 9 9 9 9 9 9 8 8 8 8 8 7 7 6 6 6 6 6 5 5
13 14 15 15 16 16 15 15 15 15 15 14 14 13 12 11 11 10 10 10 9 9 9 9 9 9 9 8 8 8 8 8 8 7 7 7 6 6 6 5 5 5 5 5
13 13 13 14 15 15 13 13 14 14 14 14 13 12 11 11 10 10 9 9 9 8 8 8 8 8 8 8 8 8 7 7 7 7 6 6 6 5 5 5 5 4 4 4
14 13 11 12 13 13 13 14 14 13 12 12 11 11 10 9 9 9 9 9 8 8 8 8 8 8 7 7 7 7 7 6 6 6 6 5 5 5 5 4 4 4 3 3
13 13 12 11 12 12 14 14 14 13 11 11 10 10 9 8 8 8 8 8 8 8 8 7 7 7 7 7 7 6 6 6 6 5 5 5 5 4 4 4 4 3 3 3
14 12 12 12 12 12 12 14 14 12 11 11 10 9 9 9 8 7 7 7 7 7 7 7 7 7 6 6 6 6 6 5 5 5 5 4 4 4 4 4 3 3 3 3
13 12 12 11 11 11 13 13 13 12 10 10 10 9 9 9 8 7 7 7 7 7 6 6 6 6 6 6 6 6 5 5 5 5 4 4 4 4 4 3 3 3 3 3
12 11 11 10 10 11 12 12 11 10 11 10 10 10 9 8 7 7 7 6 6 6 6 6 6 6 6 5 5 5 5 5 4 4 4 4 4 4 4 3 3 3 3 3
12 11 10 10 10 11 12 12 12 12 11 10 10 9 9 7 7 7 6 6 6 6 6 6 6 6 5 5 5 5 5 4 4 4 4 4 4 4 4 4 3 3 3 3
13 12 10 9 10 11 11 12 11 11 11 10 10 9 8 7 7 6 6 6 6 6 6 6 5 5 5 5 5 5 5 4 4 4 4 4 4 4 4 4 3 3 3 3
13 12 10 9 10 10 11 11 11 11 10 10 9 9 8 7 6 6 6 6 6 6 6 5 5 5 5 5 5 5 5 4 4 4 4 4 4 4 4 4 4 3 3 2
11 11 9 9 11 10 10 10 11 10 10 9 9 8 7 7 7 6 6 6 6 6 6 6 5 5 5 5 5 5 5 5 4 4 4 4 4 4 4 4 4 3 3 2
Wind_Speed
3 3 4 7 7 8 6 6 10 11 9 6 12 16 16 10 5 5 8 13 13 12 10 9 8 8 10 10 11 13 14 15 13 11 9 8 6 6 6 6 9 10 10 10
2 5 9 7 7 7 8 9 11 12 10 8 11 16 11 3 4 6 9 11 12 10 8 8 8 8 10 12 12 12 13 14 12 8 6 5 7 6 6 6 10 12 11 10
7 8 8 8 8 9 10 8 9 10 11 8 3 7 3 3 7 10 9 9 8 10 10 9 8 9 9 9 10 10 10 11 10 10 9 10 8 6 5 6 6 8 11 11
7 10 8 8 10 9 9 9 8 7 4 6 2 3 4 4 8 10 11 11 9 9 8 7 7 6 6 7 7 8 9 10 11 12 12 13 9 7 5 6 7 8 11 11
7 7 8 10 13 10 10 9 5 3 1 4 4 2 6 3 6 8 11 12 12 11 10 9 8 6 6 6 8 10 11 11 10 12 13 13 11 9 9 9 10 9 8 10
11 8 7 11 12 10 8 3 5 5 5 2 4 2 4 4 3 9 10 12 12 12 12 12 11 10 10 10 9 10 12 11 10 11 11 12 14 13 12 11 10 8 7 7
8 9 8 7 6 5 2 5 4 4 4 5 5 3 1 7 9 12 13 12 11 11 12 12 13 13 12 12 12 12 14 14 12 13 12 12 13 14 13 11 10 9 7 6
4 7 6 6 7 5 4 9 7 4 2 4 4 3 4 11 13 14 13 12 12 12 12 13 13 13 13 14 14 14 15 15 14 14 13 13 12 11 10 10 9 9 7 7
3 6 6 5 6 7 4 5 9 6 1 1 2 5 5 9 12 12 12 12 12 11 12 12 13 14 14 15 15 15 16 16 15 15 15 14 13 13 12 11 10 8 7 7
3 4 7 4 1 1 6 5 6 5 3 2 3 3 5 10 11 11 11 11 10 10 11 12 13 13 14 14 15 15 16 16 15 14 13 13 13 13 12 11 10 9 8 7
4 2 6 5 3 1 2 3 4 4 5 4 2 2 4 9 12 12 11 10 9 10 10 11 12 12 14 14 14 15 15 15 15 14 14 14 13 12 12 10 10 9 8 8
5 3 2 2 3 5 7 3 3 4 2 3 3 2 8 13 13 13 11 10 9 10 10 11 11 12 13 14 14 14 14 15 14 14 14 14 13 12 11 10 9 8 8 7
4 5 4 6 7 9 7 6 3 3 3 2 3 3 6 13 13 12 11 10 10 10 10 10 10 11 13 13 13 14 14 14 13 13 14 13 12 11 11 10 9 8 8 8
4 5 4 2 1 2 4 8 7 6 3 1 2 6 7 10 11 10 10 10 10 10 10 11 11 11 12 12 13 14 13 12 13 13 13 13 11 10 10 10 9 9 8 9
5 5 3 2 4 7 10 9 9 7 4 4 5 7 7 8 9 9 9 10 10 11 11 12 12 12 12 12 12 13 13 12 12 13 13 11 10 9 10 9 9 8 9 9
5 4 3 3 7 11 13 13 9 8 6 7 10 8 6 7 8 8 9 10 11 11 13 13 13 12 12 12 12 12 11 10 10 11 11 9 9 9 9 8 8 8 8 7
3 4 4 1 3 6 9 8 7 7 6 4 4 5 9 9 8 7 8 10 11 12 12 12 11 10 10 9 10 10 10 9 10 10 9 8 8 8 7 7 7 7 6 6
3 3 3 2 4 6 2 1 7 10 9 9 10 9 10 10 10 9 8 10 11 11 11 10 9 9 8 9 9 9 9 9 9 8 8 7 7 7 6 6 6 5 4 4
4 5 4 4 5 4 1 1 2 5 5 5 10 11 11 12 11 8 8 9 10 9 9 8 8 8 8 8 8 8 8 8 8 8 7 6 6 6 6 6 4 3 3 2
6 6 5 4 5 2 2 6 1 8 4 2 7 11 10 5 5 4 6 9 10 9 8 8 7 8 8 6 6 8 7 7 6 6 5 5 5 6 6 4 2 1 1 1
5 6 5 4 4 1 4 7 3 4 4 4 7 8 6 2 5 9 9 9 9 8 8 7 7 6 5 6 7 7 6 5 4 4 5 5 5 5 4 2 1 1 1 2
3 3 3 3 3 2 6 4 4 5 3 6 6 7 9 12 13 11 10 9 8 8 7 7 7 6 5 6 7 7 5 3 4 4 4 4 3 3 3 2 1 2 2 3
3 5 4 4 3 3 3 5 5 6 7 5 7 10 14 13 11 10 8 8 7 7 6 6 7 6 5 5 6 6 3 3 4 4 3 2 2 1 2 2 1 1 2 2
1 4 6 5 4 4 6 6 6 7 7 7 10 12 12 12 11 10 8 7 6 6 6 6 7 6 4 4 4 4 3 3 3 3 2 1 1 2 1 1 1 2 2 2
1 4 5 5 5 5 4 4 6 7 9 10 10 10 11 12 11 9 8 7 6 5 5 5 6 5 4 3 3 2 3 3 3 1 1 2 3 3 1 0 0 2 2 3
2 5 7 6 7 6 4 4 7 8 8 10 11 10 10 10 10 9 7 6 6 6 5 5 5 5 4 3 2 2 3 4 3 1 2 2 2 2 1 2 2 4 3 4
Wind_Direction
223 117 227 232 206 211 248 282 289 282 281 279 260 255 254 254 241 218 180 171 175 176 177 171 178 186 179 179 187 188 175 169 164 162 155 140 130 118 106 97 102 106 109 112
11 247 236 241 257 261 271 280 284 292 293 290 264 253 249 243 195 176 163 162 160 152 139 154 166 180 190 189 191 189 177 170 167 160 141 119 114 100 92 89 80 84 92 96
212 241 238 241 263 263 267 252 260 273 303 320 271 274 257 77 83 79 86 100 116 136 145 153 157 172 179 181 183 185 175 164 150 129 119 113 102 95 90 88 82 75 83 85
244 249 249 242 248 239 260 252 250 268 318 306 15 263 278 121 78 74 70 70 76 89 109 118 121 139 156 165 162 156 147 143 143 141 141 140 139 134 119 108 96 83 80 84
243 235 224 233 241 232 237 252 257 265 281 329 355 113 292 63 88 86 77 70 65 66 75 84 89 92 95 117 136 139 131 130 135 139 141 136 129 123 123 114 105 93 80 79
249 254 220 225 239 234 237 303 2 43 73 351 270 120 301 354 133 115 92 77 67 65 64 64 65 70 71 78 95 112 114 110 111 115 123 129 130 128 123 116 110 100 91 82
278 271 248 231 248 280 144 90 32 7 32 249 264 125 12 40 81 105 100 83 69 61 60 59 58 61 65 72 82 91 98 96 95 99 101 109 118 119 120 120 115 111 101 93
263 281 254 212 197 201 184 139 155 175 196 290 340 107 86 83 83 85 86 81 72 64 60 59 57 58 63 66 71 82 88 88 88 92 94 96 101 103 105 107 110 105 103 100
247 267 279 236 195 162 159 170 170 141 165 306 304 115 124 110 98 92 87 80 73 69 65 64 63 62 65 67 69 78 85 86 87 90 92 93 95 99 103 102 99 99 101 102
216 280 299 281 72 127 159 153 93 113 153 243 279 183 191 160 131 108 94 87 80 76 72 69 69 69 70 72 74 76 81 85 86 88 92 95 94 97 99 100 99 97 94 91
45 48 333 26 45 262 72 65 96 133 155 160 251 312 342 148 130 115 102 92 85 80 78 78 78 77 77 76 77 79 81 84 85 87 89 90 91 94 95 96 96 95 91 87
7 87 23 27 18 58 89 83 107 142 229 169 154 49 39 99 106 109 106 99 93 88 85 84 84 84 83 82 81 82 83 84 86 90 91 91 91 91 91 89 86 86 83 80
27 65 39 2 360 15 40 29 38 126 112 106 125 110 80 98 104 109 113 109 101 95 93 89 88 89 90 89 88 88 87 88 89 90 90 88 85 83 82 79 76 75 75 72
88 68 106 133 252 349 25 28 39 75 88 90 114 122 114 111 111 108 110 110 107 101 98 96 92 91 91 92 92 93 90 89 90 89 88 85 82 80 79 77 73 73 75 79
71 70 60 94 81 74 58 38 45 63 76 107 101 107 120 120 118 116 112 112 104 98 93 91 90 89 91 92 91 91 91 90 92 91 88 86 85 82 79 76 73 71 75 86
59 73 53 61 86 76 55 37 47 55 62 95 102 90 98 99 99 107 112 115 108 101 97 93 91 91 91 94 96 94 93 92 92 91 90 87 84 81 80 80 77 76 79 85
39 75 66 45 130 79 44 19 49 56 33 72 90 109 115 103 101 111 117 116 112 111 107 102 96 92 91 90 94 95 94 92 92 93 93 89 87 84 82 87 83 82 82 90
106 74 90 86 67 74 121 81 92 83 62 79 99 107 105 101 89 78 90 109 111 108 105 101 98 93 90 91 89 90 91 91 91 90 89 87 88 87 84 84 82 79 81 97
115 111 80 83 89 99 77 311 189 122 82 99 121 124 122 116 91 70 73 93 101 103 103 100 99 99 98 97 100 99 95 95 95 94 94 94 97 99 94 87 78 72 83 94
51 73 86 86 98 125 290 319 91 112 101 151 147 149 154 143 113 119 99 98 98 96 98 99 96 95 97 97 102 102 100 100 102 105 105 104 104 109 106 104 92 77 102 166
27 33 57 79 92 91 305 327 54 120 186 168 156 159 157 110 127 126 113 102 101 100 98 97 96 95 99 102 101 100 102 108 116 110 101 97 105 120 125 115 95 73 35 6
101 79 57 84 99 245 312 27 94 157 134 115 120 124 116 111 112 114 113 110 108 107 104 102 99 93 90 96 100 102 104 114 107 102 103 106 125 139 141 126 43 30 42 31
98 158 144 133 173 221 40 95 119 124 114 115 117 123 126 123 122 120 117 116 113 111 108 103 104 95 84 93 108 113 122 110 98 103 117 128 147 165 155 156 151 46 59 68
44 108 96 86 96 100 87 96 98 104 111 118 129 130 128 127 128 125 123 121 118 113 112 110 107 103 97 99 110 131 135 118 114 130 178 203 214 248 261 229 175 144 127 106
176 93 94 106 142 100 71 95 113 110 113 118 127 129 132 131 131 129 127 125 123 119 116 118 122 125 127 125 124 145 147 130 131 164 238 259 254 241 239 56 81 166 184 174
334 141 142 182 189 152 157 131 124 126 133 135 132 127 129 130 129 126 125 126 125 124 121 120 124 130 136 137 154 183 168 145 142 168 261 267 268 252 184 142 67 49 103 127
Height
1483 1490 1495 1493 1492 1493 1492 1494 1496 1488 1479 1480 1480 1474 1467 1465 1469 1470 1472 1475 1478 1480 1485 1489 1493 1498 1501 1505 1510 1513 1515 1518 1521 1524 1526 1529 1533 1536 1538 1540 1543 1545 1547 1548
1489 1492 1487 1485 1485 1487 1489 1494 1494 1485 1476 1476 1476 1471 1464 1465 1467 1468 1469 1471 1474 1478 1482 1485 1490 1494 1497 1501 1505 1509 1511 1515 1518 1521 1523 1527 1530 1533 1536 1538 1540 1542 1545 1546
1492 1487 1481 1484 1486 1488 1488 1492 1491 1488 1478 1472 1474 1475 1469 1469 1469 1471 1471 1473 1476 1476 1478 1481 1484 1488 1493 1496 1500 1504 1508 1512 1517 1519 1522 1525 1529 1531 1534 1536 1537 1540 1542 1544
1486 1480 1481 1483 1485 1485 1490 1480 1481 1481 1486 1491 1482 1496 1478 1473 1475 1476 1478 1478 1479 1480 1480 1480 1481 1485 1488 1492 1498 1502 1506 1509 1513 1515 1517 1521 1524 1527 1530 1532 1534 1537 1540 1542
1483 1477 1479 1482 1479 1478 1480 1474 1476 1477 1483 1490 1487 1494 1488 1477 1481 1483 1484 1484 1484 1483 1482 1482 1482 1484 1486 1490 1494 1499 1503 1507 1510 1512 1515 1518 1521 1524 1527 1529 1532 1535 1537 1538
1477 1472 1473 1472 1469 1470 1470 1473 1476 1483 1492 1503 1489 1491 1495 1487 1483 1486 1489 1489 1489 1488 1487 1486 1486 1486 1487 1489 1493 1497 1501 1505 1508 1510 1513 1516 1519 1522 1525 1528 1530 1532 1534 1536
1478 1471 1466 1466 1469 1468 1470 1487 1504 1505 1513 1507 1486 1489 1497 1489 1486 1488 1492 1494 1495 1494 1492 1491 1490 1490 1491 1492 1494 1497 1500 1503 1507 1510 1513 1515 1519 1521 1524 1527 1529 1531 1533 1535
1486 1482 1465 1461 1466 1471 1472 1483 1505 1512 1512 1504 1488 1496 1497 1493 1493 1495 1497 1498 1499 1498 1497 1496 1495 1495 1495 1495 1497 1499 1501 1504 1508 1511 1514 1516 1519 1521 1524 1526 1528 1530 1532 1534
1483 1480 1461 1457 1457 1463 1471 1479 1482 1496 1497 1503 1498 1496 1496 1494 1496 1499 1501 1502 1503 1503 1503 1502 1501 1500 1499 1500 1501 1502 1504 1506 1509 1512 1514 1517 1520 1522 1524 1527 1529 1531 1533 1535
1473 1477 1465 1458 1457 1460 1465 1470 1486 1497 1507 1510 1498 1497 1498 1495 1497 1501 1504 1505 1507 1507 1507 1506 1505 1505 1504 1505 1506 1507 1508 1510 1512 1514 1517 1519 1521 1523 1526 1528 1530 1533 1535 1537
1470 1478 1473 1467 1471 1472 1471 1476 1483 1493 1498 1507 1509 1506 1492 1491 1496 1502 1506 1509 1510 1510 1510 1510 1510 1509 1509 1510 1510 1511 1512 1513 1515 1517 1519 1521 1524 1526 1528 1531 1533 1535 1537 1539
1473 1480 1484 1479 1473 1468 1473 1480 1486 1497 1498 1498 1506 1511 1497 1496 1500 1505 1509 1511 1512 1513 1514 1514 1513 1513 1514 1514 1514 1515 1516 1517 1519 1521 1522 1524 1527 1529 1531 1534 1536 1538 1540 1541
1475 1484 1494 1492 1487 1480 1481 1482 1483 1489 1497 1501 1508 1512 1504 1503 1506 1508 1511 1513 1514 1515 1516 1517 1517 1517 1517 1518 1519 1520 1521 1522 1524 1525 1527 1529 1531 1533 1535 1537 1539 1541 1542 1543
1475 1487 1495 1502 1499 1491 1490 1487 1486 1491 1503 1504 1504 1506 1508 1508 1509 1512 1513 1514 1515 1517 1518 1518 1519 1520 1520 1521 1522 1524 1525 1527 1528 1530 1531 1533 1535 1537 1539 1541 1542 1543 1545 1545
1479 1491 1489 1490 1488 1488 1491 1492 1491 1494 1497 1502 1504 1505 1509 1511 1512 1514 1516 1517 1518 1519 1520 1521 1522 1523 1523 1525 1526 1528 1529 1531 1533 1534 1535 1537 1540 1541 1543 1544 1545 1546 1547 1547
1484 1491 1491 1493 1491 1492 1497 1498 1496 1497 1497 1501 1503 1510 1512 1514 1515 1517 1518 1520 1521 1523 1523 1525 1526 1527 1528 1529 1530 1531 1533 1535 1537 1538 1539 1541 1543 1544 1545 1546 1547 1547 1548 1548
1489 1492 1498 1502 1495 1495 1509 1507 1504 1505 1504 1503 1508 1513 1514 1516 1518 1520 1521 1522 1524 1525 1526 1527 1529 1530 1532 1533 1534 1535 1537 1538 1540 1541 1543 1545 1546 1547 1547 1548 1548 1549 1549 1549
1490 1494 1502 1505 1505 1517 1517 1508 1507 1508 1510 1509 1511 1515 1517 1519 1521 1523 1524 1525 1526 1528 1530 1531 1532 1534 1535 1536 1538 1539 1541 1542 1543 1544 1546 1547 1548 1549 1549 1549 1549 1550 1549 1549
1486 1493 1502 1510 1514 1517 1512 1508 1508 1510 1516 1515 1516 1518 1520 1522 1523 1527 1528 1528 1530 1531 1533 1534 1535 1536 1538 1540 1541 1542 1543 1545 1546 1547 1548 1550 1550 1551 1551 1551 1551 1550 1550 1550
1489 1493 1503 1509 1515 1522 1517 1508 1505 1510 1519 1518 1518 1519 1521 1522 1526 1531 1531 1531 1533 1535 1536 1537 1538 1540 1541 1542 1544 1545 1546 1547 1549 1550 1551 1552 1552 1552 1552 1552 1552 1551 1551 1550
1501 1503 1508 1513 1519 1518 1511 1507 1506 1517 1521 1518 1518 1519 1521 1523 1526 1530 1532 1534 1536 1537 1539 1540 1541 1542 1544 1545 1546 1547 1548 1550 1551 1552 1553 1554 1554 1554 1554 1553 1553 1552 1551 1550
1506 1511 1513 1517 1523 1524 1511 1508 1513 1517 1516 1517 1519 1520 1522 1524 1528 1531 1534 1536 1538 1540 1542 1543 1544 1545 1546 1547 1548 1550 1551 1552 1553 1554 1555 1555 1555 1555 1555 1554 1554 1553 1551 1550
1504 1508 1512 1517 1521 1516 1512 1512 1514 1515 1517 1519 1520 1522 1524 1527 1531 1534 1537 1539 1541 1543 1544 1546 1547 1547 1549 1550 1551 1552 1553 1554 1555 1556 1556 1556 1556 1556 1555 1555 1554 1553 1551 1549
1503 1503 1510 1515 1517 1516 1515 1516 1517 1518 1519 1520 1522 1524 1526 1529 1533 1536 1539 1541 1543 1545 1547 1548 1549 1550 1551 1552 1553 1554 1555 1556 1556 1556 1557 1557 1556 1556 1555 1554 1553 1552 1551 1549
1502 1504 1511 1516 1517 1517 1517 1517 1518 1519 1520 1522 1524 1526 1529 1531 1535 1538 1541 1544 1546 1548 1550 1551 1552 1553 1554 1555 1555 1556 1556 1557 1557 1557 1557 1556 1556 1555 1555 1554 1553 1551 1550 1548
1503 1505 1510 1514 1512 1514 1517 1518 1519 1519 1521 1523 1525 1529 1532 1534 1537 1540 1543 1546 1548 1550 1552 1553 1554 1555 1556 1557 1557 1557 1557 1557 1557 1557 1557 1556 1555 1554 1553 1552 1551 1550 1549 1547